TimeCDT,TemperatureF,Dew PointF,Humidity,Sea Level PressureIn,VisibilityMPH,Wind Direction,Wind SpeedMPH,Gust SpeedMPH,PrecipitationIn,Events,Conditions,WindDirDegrees,DateUTC
12:15 AM,74.3,67.1,78,29.89,10.0,WSW,6.9,-,N/A,,Clear,240,2013-08-28 05:15:00
12:35 AM,75.6,66.2,73,29.89,10.0,WSW,10.4,-,N/A,,Clear,240,2013-08-28 05:35:00
12:55 AM,76.5,65.5,69,29.89,10.0,WSW,10.4,-,N/A,,Clear,240,2013-08-28 05:55:00
1:15 AM,76.3,65.3,69,29.89,10.0,WSW,11.5,-,N/A,,Clear,240,2013-08-28 06:15:00
1:35 AM,76.1,64.9,68,29.88,10.0,WSW,10.4,-,N/A,,Clear,240,2013-08-28 06:35:00
1:55 AM,75.7,65.1,69,29.88,10.0,WSW,8.1,-,N/A,,Clear,250,2013-08-28 06:55:00
2:15 AM,74.8,65.3,72,29.88,10.0,WSW,9.2,-,N/A,,Clear,250,2013-08-28 07:15:00
2:35 AM,74.5,65.3,73,29.88,10.0,WSW,6.9,-,N/A,,Clear,250,2013-08-28 07:35:00
2:55 AM,73.6,65.3,75,29.88,10.0,West,6.9,-,N/A,,Clear,260,2013-08-28 07:55:00
3:15 AM,73.4,65.3,76,29.88,10.0,WSW,6.9,-,N/A,,Clear,250,2013-08-28 08:15:00
3:35 AM,73.4,65.3,76,29.88,10.0,WSW,8.1,-,N/A,,Clear,250,2013-08-28 08:35:00
3:55 AM,72.7,65.5,78,29.89,10.0,WSW,5.8,-,N/A,,Clear,250,2013-08-28 08:55:00
4:15 AM,72.1,65.8,80,29.89,10.0,West,4.6,-,N/A,,Clear,280,2013-08-28 09:15:00
4:35 AM,70.3,66.2,87,29.90,10.0,Calm,Calm,-,N/A,,Clear,0,2013-08-28 09:35:00
4:55 AM,70.7,66.2,86,29.90,10.0,SW,3.5,-,N/A,,Clear,230,2013-08-28 09:55:00
5:15 AM,69.8,66.2,88,29.91,10.0,WSW,4.6,-,N/A,,Clear,240,2013-08-28 10:15:00
5:35 AM,69.3,66.2,90,29.91,10.0,SW,5.8,-,N/A,,Clear,230,2013-08-28 10:35:00
5:55 AM,68.9,66.2,91,29.92,10.0,Calm,Calm,-,N/A,,Clear,0,2013-08-28 10:55:00
6:15 AM,69.1,66.4,91,29.93,10.0,Calm,Calm,-,N/A,,Mostly Cloudy,0,2013-08-28 11:15:00
6:35 AM,68.9,66.4,92,29.94,10.0,Calm,Calm,-,N/A,,Scattered Clouds,0,2013-08-28 11:35:00
6:55 AM,68.9,66.6,92,29.94,7.0,Calm,Calm,-,N/A,,Scattered Clouds,0,2013-08-28 11:55:00
7:15 AM,69.8,67.1,91,29.95,10.0,Calm,Calm,-,N/A,,Mostly Cloudy,0,2013-08-28 12:15:00
7:35 AM,71.6,67.3,86,29.95,10.0,Calm,Calm,-,N/A,,Scattered Clouds,0,2013-08-28 12:35:00
7:55 AM,73.2,68.0,84,29.95,10.0,Calm,Calm,-,N/A,,Clear,0,2013-08-28 12:55:00
8:15 AM,74.7,68.5,81,29.95,10.0,WSW,3.5,-,N/A,,Clear,250,2013-08-28 13:15:00
8:35 AM,76.5,69.6,79,29.95,10.0,Calm,Calm,-,N/A,,Clear,0,2013-08-28 13:35:00
8:55 AM,78.1,70.7,78,29.95,10.0,NW,4.6,-,N/A,,Clear,320,2013-08-28 13:55:00
9:15 AM,78.8,70.7,76,29.96,10.0,North,5.8,-,N/A,,Clear,350,2013-08-28 14:15:00
9:35 AM,79.5,71.1,75,29.97,10.0,North,5.8,-,N/A,,Clear,350,2013-08-28 14:35:00
9:55 AM,79.9,72.0,77,29.98,10.0,NNE,8.1,-,N/A,,Mostly Cloudy,20,2013-08-28 14:55:00
10:15 AM,80.4,72.0,75,29.98,10.0,NNE,10.4,-,N/A,,Overcast,30,2013-08-28 15:15:00
10:35 AM,80.6,72.7,77,29.98,10.0,NNE,8.1,-,N/A,,Mostly Cloudy,20,2013-08-28 15:35:00
10:55 AM,80.1,72.7,78,29.99,7.0,NE,9.2,-,N/A,,Scattered Clouds,40,2013-08-28 15:55:00
11:15 AM,80.2,73.0,79,29.99,7.0,NE,6.9,-,N/A,,Scattered Clouds,40,2013-08-28 16:15:00
11:35 AM,80.1,72.7,78,29.99,7.0,NNE,8.1,-,N/A,,Scattered Clouds,20,2013-08-28 16:35:00
11:55 AM,81.5,73.4,76,29.99,10.0,NE,10.4,-,N/A,,Mostly Cloudy,40,2013-08-28 16:55:00
12:15 PM,80.8,72.9,77,29.99,7.0,NNE,5.8,-,N/A,,Mostly Cloudy,20,2013-08-28 17:15:00
12:35 PM,80.6,72.7,77,30.00,7.0,NE,5.8,-,N/A,,Mostly Cloudy,50,2013-08-28 17:35:00
12:55 PM,80.8,73.0,77,30.00,7.0,North,4.6,-,N/A,,Mostly Cloudy,10,2013-08-28 17:55:00
1:15 PM,80.8,72.9,77,30.00,10.0,NE,8.1,-,N/A,,Overcast,50,2013-08-28 18:15:00
1:35 PM,80.6,72.7,77,30.00,10.0,ENE,6.9,-,N/A,,Overcast,60,2013-08-28 18:35:00
1:55 PM,80.6,72.7,77,30.00,10.0,NE,8.1,-,N/A,,Overcast,50,2013-08-28 18:55:00
2:15 PM,81.0,72.5,75,30.00,10.0,NE,8.1,-,N/A,,Overcast,50,2013-08-28 19:15:00
2:35 PM,80.8,72.3,75,30.00,10.0,NNE,6.9,-,N/A,,Overcast,30,2013-08-28 19:35:00
2:55 PM,81.5,72.1,73,30.00,10.0,ENE,5.8,-,N/A,,Mostly Cloudy,60,2013-08-28 19:55:00
3:15 PM,81.0,72.3,75,30.00,10.0,North,8.1,-,N/A,,Overcast,10,2013-08-28 20:15:00
3:35 PM,82.4,71.8,70,30.00,10.0,NNE,4.6,-,N/A,,Scattered Clouds,20,2013-08-28 20:35:00
3:55 PM,83.3,72.3,69,30.00,10.0,NE,3.5,-,N/A,,Clear,40,2013-08-28 20:55:00
4:15 PM,82.9,72.0,69,30.00,10.0,Calm,Calm,-,N/A,,Clear,0,2013-08-28 21:15:00
4:35 PM,83.5,72.9,70,30.00,10.0,Calm,Calm,-,N/A,,Clear,0,2013-08-28 21:35:00
4:55 PM,84.2,72.9,69,30.00,10.0,NE,4.6,-,N/A,,Clear,40,2013-08-28 21:55:00
5:15 PM,84.6,72.5,67,30.00,10.0,NNE,6.9,-,N/A,,Clear,20,2013-08-28 22:15:00
5:35 PM,82.9,72.5,71,30.00,10.0,NE,5.8,-,N/A,,Clear,40,2013-08-28 22:35:00
5:55 PM,82.0,71.8,71,30.00,10.0,NE,5.8,-,N/A,,Scattered Clouds,40,2013-08-28 22:55:00
6:15 PM,82.6,70.9,68,30.00,10.0,NE,8.1,-,N/A,,Clear,50,2013-08-28 23:15:00
6:35 PM,82.0,70.5,68,30.01,10.0,NE,5.8,-,N/A,,Clear,40,2013-08-28 23:35:00
6:55 PM,81.0,70.7,71,30.01,10.0,NE,5.8,-,N/A,,Clear,40,2013-08-28 23:55:00
7:15 PM,79.2,70.3,74,30.01,10.0,ENE,5.8,-,N/A,,Clear,70,2013-08-29 00:15:00
7:35 PM,77.0,70.9,81,30.01,10.0,ENE,5.8,-,N/A,,Clear,60,2013-08-29 00:35:00
7:55 PM,76.8,70.2,80,30.02,10.0,ENE,5.8,-,N/A,,Clear,70,2013-08-29 00:55:00
8:15 PM,76.3,70.0,81,30.03,10.0,East,5.8,-,N/A,,Clear,80,2013-08-29 01:15:00
8:35 PM,76.1,69.3,79,30.03,10.0,East,6.9,-,N/A,,Clear,80,2013-08-29 01:35:00
8:55 PM,74.3,69.1,84,30.04,10.0,ENE,5.8,-,N/A,,Clear,70,2013-08-29 01:55:00
9:15 PM,73.2,68.9,86,30.04,10.0,East,4.6,-,N/A,,Clear,90,2013-08-29 02:15:00
9:35 PM,72.5,68.9,88,30.04,10.0,East,4.6,-,N/A,,Clear,90,2013-08-29 02:35:00
9:55 PM,71.1,68.2,91,30.05,10.0,Calm,Calm,-,N/A,,Clear,0,2013-08-29 02:55:00
10:15 PM,70.7,68.0,91,30.06,10.0,Calm,Calm,-,N/A,,Clear,0,2013-08-29 03:15:00
10:35 PM,70.2,67.6,92,30.06,10.0,Calm,Calm,-,N/A,,Clear,0,2013-08-29 03:35:00
10:55 PM,69.3,66.6,91,30.05,10.0,ENE,4.6,-,N/A,,Clear,70,2013-08-29 03:55:00
11:15 PM,69.3,66.0,89,30.06,10.0,ENE,4.6,-,N/A,,Clear,70,2013-08-29 04:15:00
11:35 PM,68.7,65.3,89,30.05,10.0,ENE,5.8,-,N/A,,Clear,70,2013-08-29 04:35:00
11:55 PM,67.3,64.6,91,30.05,10.0,NE,5.8,-,N/A,,Clear,50,2013-08-29 04:55:00